Flag for Japan Weather past 2 weeks in Kumamoto, Japan

Now
50 °F

Cool.


Feels Like: 50 °F
Forecast: 47 / 78 °F
Wind: 2 mph from North

Location: Kumamoto

Current Time: Apr 26, 2015 at 5:08:19 AM

Latest Report: Apr 26, 2015 at 4:00 AM


Visibility: N/A

Pressure: 30.14 "Hg

Humidity: 70%

Dew point: 41 °F

Location of KumamotoLocation

Historic Weather in Kumamoto — Graph

°F

Kumamoto temperature yesterday

Maximum temperature yesterday: 77 °F (at 3:00 PM)
Minimum temperature yesterday: 53 °F (at 7:00 AM)
Average temperature yesterday: 65 °F

Past Weeks' High & Low Weather Summary

 TemperatureHumidityPressure
High77 °F (Apr 25, 3:00 PM)100% (Apr 19, 5:00 AM)30.24 "Hg (Apr 19, 5:00 AM)
Low47 °F (Apr 18, 6:00 AM)14% (Apr 25, 3:00 PM)29.57 "Hg (Apr 20, 5:00 AM)
Average61 °F67%29.98 "Hg
* Reported Apr 11 3:00 AM — Apr 26 3:00 AM, Kumamoto, Weather by CustomWeather, © 2015

Note: Actual official high and low records may vary slightly from our data, if they occured in-between our weather recording intervals... More about our weather records

Advertising

Kumamoto weather history for previous 24 hours

 ConditionsComfort  
Time TempWeatherWind HumidityBarometerVisibility
3:00 AM
Sun, Apr 26
51 °FClear.2 mph72%30.13 "Hg12 mi
2:00 AM53 °FCool.2 mph69%30.13 "HgN/A
1:00 AM55 °FCool.3 mph62%30.14 "HgN/A
12:00 AM57 °FRefreshingly cool.2 mph59%30.14 "HgN/A
11:00 PM
Sat, Apr 25
60 °FRefreshingly cool.3 mph49%30.13 "HgN/A
10:00 PM63 °FMild.2 mph40%30.12 "HgN/A
9:00 PM64 °FClear.8 mph39%30.11 "Hg19 mi
8:00 PM66 °FMild.8 mph36%30.08 "HgN/A
7:00 PM68 °FMild.8 mph28%30.06 "HgN/A
6:00 PM72 °FPassing clouds.9 mph21%30.05 "Hg19 mi
5:00 PM74 °FMild.12 mph15%30.04 "HgN/A
4:00 PM76 °FMild.13 mph14%30.03 "HgN/A
3:00 PM77 °FPassing clouds.9 mph14%30.04 "Hg16 mi
2:00 PM76 °FMild.12 mph16%30.06 "HgN/A
1:00 PM76 °FMild.9 mph21%30.07 "HgN/A
12:00 PM73 °FSunny.3 mph44%30.10 "Hg6 mi
11:00 AM70 °FMild.5 mph43%30.11 "HgN/A
10:00 AM67 °FMild.3 mph45%30.12 "HgN/A
9:00 AM63 °FHaze.2 mph63%30.13 "Hg5 mi
8:00 AM56 °FCool.2 mph74%30.13 "HgN/A
7:00 AM53 °FCool.3 mph85%30.13 "HgN/A
5:00 AM53 °FCool.3 mph81%30.11 "HgN/A
Weather by CustomWeather, © 2015

See weather overviewHow to use our weather pages